This is the latest recevied weather packets stored in our database for station/object 4S6DRJ-13. If no packets are shown the sender has not sent any weather packets the latest 10 day(s).
| Time | Temp. | Humidity | Pressure | Rain* | Wind** | Luminosity | Snow |
|---|---|---|---|---|---|---|---|
| 1787866647 | 27.78° C | 88% | 1009 hPa | 0 mm | 0.89 m/s, 282° | 0 W/m² | - |
| 1787866585 | 27.78° C | 88% | 1008.9 hPa | 0 mm | 1.34 m/s, 237° | 0 W/m² | - |
| 1787866524 | 27.78° C | 88% | 1008.9 hPa | 0 mm | 0.89 m/s, 194° | 0 W/m² | - |
| 1787866463 | 27.78° C | 88% | 1008.9 hPa | 0 mm | 1.34 m/s, 224° | 0 W/m² | - |
| 1787866401 | 27.78° C | 87% | 1008.7 hPa | 0 mm | 1.79 m/s, 198° | 0 W/m² | - |
| 1787866341 | 27.78° C | 87% | 1008.8 hPa | 0 mm | 0.89 m/s, 207° | 0 W/m² | - |
| 1787866280 | 27.78° C | 87% | 1008.8 hPa | 0 mm | 0.45 m/s, 240° | 0 W/m² | - |
| 1787866219 | 27.78° C | 87% | 1008.8 hPa | 0 mm | 1.34 m/s, 321° | 0 W/m² | - |
| 1787866158 | 27.78° C | 87% | 1009 hPa | 0 mm | 0.89 m/s, 224° | 0 W/m² | - |
| 1787866097 | 27.78° C | 87% | 1008.7 hPa | 0 mm | 0.89 m/s, 288° | 0 W/m² | - |
| 1787866036 | 27.78° C | 87% | 1009 hPa | 0 mm | 0.89 m/s, 230° | 0 W/m² | - |
| 1787865975 | 27.78° C | 87% | 1008.8 hPa | 0 mm | 0.89 m/s, 220° | 0 W/m² | - |
| 1787865914 | 27.78° C | 87% | 1008.7 hPa | 0 mm | 1.79 m/s, 242° | 0 W/m² | - |
| 1787865853 | 27.78° C | 87% | 1008.6 hPa | 0 mm | 0.89 m/s, 260° | 0 W/m² | - |
| 1787865792 | 27.78° C | 87% | 1008.9 hPa | 0 mm | 0.45 m/s, 241° | 0 W/m² | - |
| 1787865731 | 27.78° C | 87% | 1008.8 hPa | 0 mm | 0.89 m/s, 316° | 0 W/m² | - |
| 1787865671 | 27.78° C | 87% | 1008.8 hPa | 0 mm | 0.89 m/s, 290° | 0 W/m² | - |
| 1787865610 | 27.78° C | 87% | 1008.7 hPa | 0 mm | 0.89 m/s, 211° | 0 W/m² | - |
| 1787865548 | 27.78° C | 87% | 1008.9 hPa | 0 mm | 0.89 m/s, 207° | 0 W/m² | - |
| 1787865487 | 27.78° C | 87% | 1008.8 hPa | 0 mm | 1.79 m/s, 218° | 0 W/m² | - |
| 1787865426 | 27.78° C | 87% | 1008.8 hPa | 0 mm | 1.79 m/s, 303° | 0 W/m² | - |
| 1787865365 | 27.78° C | 87% | 1008.7 hPa | 0 mm | 1.34 m/s, 198° | 0 W/m² | - |
| 1787865311 | 27.78° C | 87% | 1008.8 hPa | 0 mm | 0.45 m/s, 207° | 0 W/m² | - |
| 1787865244 | 27.78° C | 87% | 1008.9 hPa | 0 mm | 1.79 m/s, 281° | 0 W/m² | - |
| 1787865182 | 27.78° C | 87% | 1008.8 hPa | 0 mm | 1.79 m/s, 221° | 0 W/m² | - |
* Rain latest hour (hover to see other rain measurements)
** Current wind speed in m/s (hover to see current wind gust speed)